Location: Silverdale
(47.6506°N, 122.6941°W)
Time: 11:23:49
(UTC+00:00)

Courier 1B - Pass Details

Date: 08 October 2022
Orbit: 962 x 1209 km, 28.3° (Epoch: 04 December)

Event Time Altitude Azimuth Distance (km) Brightness Sun altitude
Rises 21:15:54 0° 230° (SW) 4,086 11.6 33.6°
Reaches altitude 10° 21:20:01 10° 211° (SSW) 3,096 11.6 33.3°
Maximum altitude 21:24:24 16° 176° (S) 2,613 10.9 33.0°
Drops below altitude 10° 21:28:40 10° 141° (SE) 3,010 10.5 32.6°
Sets 21:32:35 0° 121° (ESE) 3,920 10.7 32.3°
